Location: Bonac
(42.8765°N, 0.9753°E)
Time: 17:22:25
(UTC+00:00)

USA 267 - Visible Passes

Search period start: 11 April 2026 00:00
Search period end: 21 April 2026 00:00
Orbit: 1101 x 1107 km, 123.0° (Epoch: 10 January)

Date Brightness Start Highest point End Pass type
(mag) Time Alt. Az. Time Alt. Az. Time Alt. Az.
11 Apr 4.0 00:43:03 10° NE 00:47:23 45° NE 00:47:23 45° NE visible
11 Apr 4.2 02:26:18 10° NE 02:32:16 39° NNW 02:34:43 29° WNW visible
11 Apr 4.9 04:08:59 10° NE 04:14:10 26° N 04:19:21 10° NW visible
12 Apr 4.9 00:00:28 10° ENE 00:02:48 22° ENE 00:02:48 22° ENE visible
12 Apr 3.5 01:43:23 10° NE 01:49:49 59° NNW 01:50:08 59° NW visible
12 Apr 4.7 03:26:32 10° NE 03:32:01 30° NNW 03:37:29 10° WNW visible
13 Apr 3.7 01:00:32 10° NE 01:05:34 56° ENE 01:05:34 56° ENE visible
13 Apr 4.2 02:43:47 10° NE 02:49:46 39° NNW 02:52:54 25° WNW visible
13 Apr 4.9 04:26:28 10° NE 04:31:40 26° N 04:36:50 10° NW visible
14 Apr 4.7 00:17:57 10° ENE 00:21:00 27° ENE 00:21:00 27° ENE visible
14 Apr 3.5 02:00:53 10° NE 02:07:18 59° NNW 02:08:20 53° WNW visible
14 Apr 4.7 03:44:01 10° NE 03:49:31 29° NNW 03:55:00 10° WNW visible
14 Apr 5.5 23:36:05 10° ENE 23:36:26 11° ENE 23:36:26 11° ENE visible
15 Apr 3.4 01:18:01 10° NE 01:23:46 70° ENE 01:23:46 70° ENE visible
15 Apr 4.2 03:01:16 10° NE 03:07:14 39° NNW 03:11:07 20° WNW visible
15 Apr 4.9 04:43:57 10° NE 04:49:08 26° N 04:54:19 10° NW visible
16 Apr 4.4 00:35:26 10° ENE 00:39:12 32° E 00:39:12 32° E visible
16 Apr 3.5 02:18:22 10° NE 02:24:47 59° NNW 02:26:33 45° W visible
16 Apr 4.6 04:01:31 10° NE 04:06:59 29° NNW 04:12:28 10° WNW visible
16 Apr 5.3 23:53:34 10° ENE 23:54:39 14° E 23:54:39 14° E visible
17 Apr 3.1 01:35:30 10° NE 01:42:00 84° ESE 01:42:00 84° ESE visible
17 Apr 4.2 03:18:45 10° NE 03:24:43 39° NNW 03:29:21 16° W visible
18 Apr 4.1 00:52:55 10° ENE 00:57:27 38° E 00:57:27 38° E visible
18 Apr 3.6 02:35:51 10° NE 02:42:16 59° NNW 02:44:48 37° W visible
18 Apr 4.6 04:18:59 10° NE 04:24:29 29° NNW 04:29:57 10° WNW visible
19 Apr 5.2 00:11:02 10° ENE 00:12:55 16° E 00:12:55 16° E visible
19 Apr 3.1 01:52:59 10° NE 01:59:35 85° SE 02:00:15 74° SSW visible
19 Apr 4.2 03:36:15 10° NE 03:42:12 39° NNW 03:47:36 13° W visible
20 Apr 3.9 01:10:23 10° ENE 01:15:43 43° ESE 01:15:43 43° ESE visible
20 Apr 3.6 02:53:20 10° NE 02:59:45 58° NNW 03:03:04 29° W visible
20 Apr 4.6 04:36:29 10° NE 04:41:57 29° NNW 04:47:25 10° WNW visible
